sat.trackr.live / text

‹ back to catalog

STARLINK-33644

NORAD 63414 · 2025-065R

PAYLOAD ACTIVE UNKNOWN

§ Identity

Operator
Country
US
Launch date
2025-03-31
Launch site
AFETR
Launch vehicle
Mass (kg)
RCS (m²)

Purposes: comms

External: N2YO · Heavens-Above · Gunter

§ Orbital elements

Epoch: 2026-05-25T01:22:41.630592Z

Period
94.27 min
Inclination
43.0024°
Eccentricity
0.0001003
Mean motion
15.27590918 rev/d
Perigee alt
482.3 km
Apogee alt
483.7 km
Semi-major
6,861.2 km
B*
3.4487e-4
RAAN
36.2371°
Arg perigee
265.2971°
Mean anomaly
94.7766°
Rev number
6,451

§ Raw data

STARLINK-336441 63414U 25065R   26145.05742628  .00009243  00000+0  34487-3 0  99942 63414  43.0024  36.2371 0001003 265.2971  94.7766 15.27590918 64513

JSON: /api/v1/satellites/63414 · /tle

For live sub-satellite position, see the globe view (requires WebGL).

§ Visibility from observer

Set your observer location to see the next 7 days of passes ≥ 10°. The values pass through the URL so the page stays shareable.

No JS? Fill the form by hand. The geolocation button needs JavaScript.